,,Stat5,,Stat1,,Stat2,,Stat3,,Stat4,,Wind1,,Wind1,
time,status,PA1M_AVG,status,PR1M_SUM,status,RH1M_AVG,status,SR1M_AVG,status,TA1M_AVG,status,W1dAve1m,status,W1sAve1m,
2002-12-30, 00:00:01,VALID,920.041,VALID,0,VALID,89.0034,VALID,0.0169808,VALID,19.1399,VALID,17,VALID,0.494196,
2002-12-30, 00:01:01,VALID,920.01,VALID,0,VALID,89.568,VALID,0.0679233,VALID,19.123,VALID,18,VALID,0.760016,
2002-12-30, 00:02:01,VALID,919.989,VALID,0,VALID,90.0856,VALID,0.0509425,VALID,19.045,VALID,28,VALID,1.03145,
2002-12-30, 00:03:01,VALID,919.968,VALID,0,VALID,90.64,VALID,0.0169808,VALID,19.0005,VALID,34,VALID,0.841005,
2002-12-30, 00:04:01,VALID,919.964,VALID,0,VALID,90.481,VALID,0.0339617,VALID,18.9749,VALID,33,VALID,0.970152,
2002-12-30, 00:05:01,VALID,919.963,VALID,0,VALID,90.3208,VALID,0.0339617,VALID,18.9846,VALID,31,VALID,0.874783,
2002-12-30, 00:06:01,VALID,919.943,VALID,0,VALID,91.2008,VALID,0.0339617,VALID,18.9687,VALID,32,VALID,0.88713,
2002-12-30, 00:07:01,VALID,919.915,VALID,0,VALID,91.1906,VALID,0,VALID,18.8851,VALID,31,VALID,0.843973,
2002-12-30, 00:08:01,VALID,919.887,VALID,0,VALID,91.3203,VALID,-0.0849042,VALID,18.8632,VALID,26,VALID,1.06055,
2002-12-30, 00:09:01,VALID,919.852,VALID,0,VALID,90.9642,VALID,-0.0509425,VALID,18.9152,VALID,10,VALID,0.476162,
2002-12-30, 00:10:01,VALID,919.855,VALID,0,VALID,90.743,VALID,-0.0679233,VALID,18.9567,VALID,10,VALID,0.003125,
2002-12-30, 00:11:01,VALID,919.835,VALID,0,VALID,89.6189,VALID,-0.0509425,VALID,18.9925,VALID,9,VALID,0.101116,
2002-12-30, 00:12:01,VALID,919.822,VALID,0,VALID,89.3226,VALID,-0.0509425,VALID,19.0633,VALID,8,VALID,0.0068109,
2002-12-30, 00:13:01,VALID,919.817,VALID,0,VALID,88.964,VALID,-0.0679233,VALID,19.1575,VALID,8,VALID,0,
2002-12-30, 00:14:01,VALID,919.821,VALID,0,VALID,88.421,VALID,-0.0169808,VALID,19.2246,VALID,8,VALID,0,
2002-12-30, 00:15:01,VALID,919.82,VALID,0,VALID,88.6855,VALID,-0.0849042,VALID,19.2706,VALID,8,VALID,0,
2002-12-30, 00:16:01,VALID,919.81,VALID,0,VALID,88.7593,VALID,-0.0679233,VALID,19.2801,VALID,8,VALID,0,
2002-12-30, 00:17:01,VALID,919.809,VALID,0,VALID,88.655,VALID,-0.0679233,VALID,19.2868,VALID,8,VALID,0,
2002-12-30, 00:18:01,VALID,919.809,VALID,0,VALID,87.5156,VALID,-0.0679233,VALID,19.3126,VALID,8,VALID,0,
2002-12-30, 00:19:01,VALID,919.79,VALID,0,VALID,86.6382,VALID,-0.0509425,VALID,19.3803,VALID,323,VALID,0.185937,
2002-12-30, 00:20:00,VALID,919.773,VALID,0,VALID,85.8244,VALID,-0.101885,VALID,19.5001,VALID,232,VALID,0.152344,
2002-12-30, 00:21:00,VALID,919.755,VALID,0,VALID,86.2809,VALID,-0.0849042,VALID,19.5679,VALID,200,VALID,0.0400641,
2002-12-30, 00:22:00,VALID,919.745,VALID,0,VALID,87.4533,VALID,-0.0339617,VALID,19.5702,VALID,200,VALID,0,
2002-12-30, 00:23:00,VALID,919.727,VALID,0,VALID,87.7712,VALID,0,VALID,19.5113,VALID,200,VALID,0,
2002-12-30, 00:24:00,VALID,919.707,VALID,0,VALID,87.756,VALID,0.0509425,VALID,19.4857,VALID,200,VALID,0,
2002-12-30, 00:25:00,VALID,919.7,VALID,0,VALID,88.6804,VALID,0.0169808,VALID,19.4857,VALID,200,VALID,0,
2002-12-30, 00:26:00,VALID,919.68,VALID,0,VALID,89.1229,VALID,0.0509425,VALID,19.3756,VALID,200,VALID,0,
2002-12-30, 00:27:00,VALID,919.669,VALID,0,VALID,89.5273,VALID,0.0169808,VALID,19.2528,VALID,200,VALID,0,
2002-12-30, 00:28:00,VALID,919.647,VALID,0,VALID,90.0029,VALID,0.0169808,VALID,19.1782,VALID,200,VALID,0,
2002-12-30, 00:29:00,VALID,919.627,VALID,0,VALID,90.3233,VALID,0.0339617,VALID,19.1461,VALID,200,VALID,0,
2002-12-30, 00:30:00,VALID,919.602,VALID,0,VALID,90.5332,VALID,0.0509425,VALID,19.1041,VALID,200,VALID,0.257612,
2002-12-30, 00:31:00,VALID,919.577,VALID,0,VALID,90.9032,VALID,0.0339617,VALID,19.0141,VALID,58,VALID,0.471205,
2002-12-30, 00:32:00,VALID,919.544,VALID,0,VALID,91.305,VALID,0.0339617,VALID,18.9269,VALID,23,VALID,0.356554,
2002-12-30, 00:33:00,VALID,919.53,VALID,0,VALID,91.7437,VALID,0.0169808,VALID,18.8752,VALID,24,VALID,0.0384615,
2002-12-30, 00:34:00,VALID,919.513,VALID,0,VALID,92.1036,VALID,0.0509425,VALID,18.8133,VALID,24,VALID,0.0944196,
2002-12-30, 00:35:00,VALID,919.491,VALID,0,VALID,92.3541,VALID,0.0339617,VALID,18.7847,VALID,24,VALID,0,
2002-12-30, 00:36:00,VALID,919.472,VALID,0,VALID,92.2218,VALID,0.0169808,VALID,18.749,VALID,24,VALID,0,
2002-12-30, 00:37:00,VALID,919.448,VALID,0,VALID,91.3165,VALID,-0.0509425,VALID,18.7139,VALID,24,VALID,0,
2002-12-30, 00:38:00,VALID,919.405,VALID,0,VALID,90.453,VALID,-0.0169808,VALID,18.7079,VALID,24,VALID,0.123047,
2002-12-30, 00:39:00,VALID,919.361,VALID,0,VALID,90.0627,VALID,-0.0679233,VALID,18.7474,VALID,24,VALID,0.302083,
2002-12-30, 00:40:00,VALID,919.324,VALID,0,VALID,90.4314,VALID,-0.0679233,VALID,18.7852,VALID,39,VALID,0.478125,
2002-12-30, 00:41:00,VALID,919.304,VALID,0,VALID,91.0482,VALID,-0.0509425,VALID,18.8014,VALID,65,VALID,0.633929,
2002-12-30, 00:42:00,VALID,919.267,VALID,0,VALID,91.6534,VALID,-0.0509425,VALID,18.7854,VALID,65,VALID,0.336939,
2002-12-30, 00:43:00,VALID,919.246,VALID,0,VALID,92.349,VALID,-0.0169808,VALID,18.7631,VALID,60,VALID,0.0613839,
2002-12-30, 00:44:00,VALID,919.209,VALID,0,VALID,92.6008,VALID,-0.0849042,VALID,18.7377,VALID,49,VALID,0.0954861,
2002-12-30, 00:45:00,VALID,919.183,VALID,0,VALID,92.892,VALID,-0.0849042,VALID,18.6922,VALID,42,VALID,0.359375,
2002-12-30, 00:46:00,VALID,919.191,VALID,0,VALID,92.8449,VALID,-0.101885,VALID,18.6567,VALID,9,VALID,0.622321,
2002-12-30, 00:47:00,VALID,919.201,VALID,0,VALID,92.3516,VALID,-0.0849042,VALID,18.6047,VALID,348,VALID,0.515402,
2002-12-30, 00:48:00,VALID,919.21,VALID,0,VALID,92.0642,VALID,-0.0679233,VALID,18.6211,VALID,354,VALID,0.249599,
2002-12-30, 00:49:00,VALID,919.191,VALID,0,VALID,92.0464,VALID,-0.0339617,VALID,18.6276,VALID,12,VALID,0.388393,
2002-12-30, 00:50:00,VALID,919.189,VALID,0,VALID,92.0413,VALID,-0.0849042,VALID,18.653,VALID,15,VALID,0.186849,
2002-12-30, 00:51:00,VALID,919.184,VALID,0,VALID,91.9752,VALID,-0.0339617,VALID,18.6629,VALID,19,VALID,0.445913,
2002-12-30, 00:52:00,VALID,919.15,VALID,0,VALID,92.1468,VALID,-0.0509425,VALID,18.6627,VALID,45,VALID,0.672098,
2002-12-30, 00:53:00,VALID,919.139,VALID,0,VALID,92.3655,VALID,0.0169808,VALID,18.6682,VALID,44,VALID,0.476116,
2002-12-30, 00:54:00,VALID,919.142,VALID,0,VALID,92.6059,VALID,0.0339617,VALID,18.6652,VALID,44,VALID,0.149038,
2002-12-30, 00:55:00,VALID,919.129,VALID,0,VALID,92.7267,VALID,-0.0339617,VALID,18.656,VALID,44,VALID,0,
2002-12-30, 00:56:00,VALID,919.128,VALID,0,VALID,92.728,VALID,-0.0169808,VALID,18.6269,VALID,44,VALID,0,
2002-12-30, 00:57:00,VALID,919.125,VALID,0,VALID,92.7063,VALID,0.0169808,VALID,18.6105,VALID,44,VALID,0.00701122,
2002-12-30, 00:58:00,VALID,919.111,VALID,0,VALID,92.8729,VALID,0,VALID,18.5941,VALID,41,VALID,0.503348,
2002-12-30, 00:59:00,VALID,919.107,VALID,0,VALID,92.9963,VALID,0,VALID,18.575,VALID,38,VALID,0.70067,
2002-12-30, 01:00:00,VALID,919.104,VALID,0,VALID,93.0916,VALID,-0.0169808,VALID,18.5489,VALID,40,VALID,0.493389,
2002-12-30, 01:01:00,VALID,919.12,VALID,0,VALID,93.0649,VALID,0,VALID,18.5456,VALID,40,VALID,0.160938,
2002-12-30, 01:02:00,VALID,919.147,VALID,0,VALID,93.0268,VALID,0.0169808,VALID,18.5422,VALID,40,VALID,0,
2002-12-30, 01:03:00,VALID,919.154,VALID,0,VALID,93.0904,VALID,0,VALID,18.5424,VALID,40,VALID,0,
2002-12-30, 01:04:00,VALID,919.176,VALID,0,VALID,93.0459,VALID,0,VALID,18.5427,VALID,40,VALID,0,
2002-12-30, 01:05:00,VALID,919.185,VALID,0,VALID,92.7292,VALID,0,VALID,18.5493,VALID,40,VALID,0,
2002-12-30, 01:06:00,VALID,919.181,VALID,0,VALID,92.3986,VALID,0,VALID,18.5463,VALID,40,VALID,0,
2002-12-30, 01:07:00,VALID,919.175,VALID,0,VALID,92.41,VALID,-0.0509425,VALID,18.5761,VALID,40,VALID,0.0279018,
2002-12-30, 01:08:00,VALID,919.181,VALID,0,VALID,92.5232,VALID,-0.101885,VALID,18.5895,VALID,40,VALID,0,
2002-12-30, 01:09:00,VALID,919.168,VALID,0,VALID,92.6771,VALID,-0.101885,VALID,18.5828,VALID,40,VALID,0.0010016,
2002-12-30, 01:10:00,VALID,919.159,VALID,0,VALID,92.9848,VALID,-0.101885,VALID,18.5537,VALID,40,VALID,0,
2002-12-30, 01:11:00,VALID,919.149,VALID,0,VALID,93.1666,VALID,-0.0849042,VALID,18.5279,VALID,40,VALID,0,
2002-12-30, 01:12:00,VALID,919.124,VALID,0,VALID,93.1666,VALID,-0.101885,VALID,18.4824,VALID,40,VALID,0,
2002-12-30, 01:13:00,VALID,919.124,VALID,0,VALID,93.2976,VALID,-0.101885,VALID,18.4637,VALID,40,VALID,0,
2002-12-30, 01:14:00,VALID,919.125,VALID,0,VALID,93.4706,VALID,-0.101885,VALID,18.4603,VALID,40,VALID,0,
2002-12-30, 01:15:00,VALID,919.122,VALID,0,VALID,93.7643,VALID,-0.101885,VALID,18.4407,VALID,40,VALID,0,
2002-12-30, 01:16:00,VALID,919.112,VALID,0,VALID,93.9932,VALID,-0.0849042,VALID,18.4277,VALID,40,VALID,0,
2002-12-30, 01:17:00,VALID,919.095,VALID,0,VALID,94.1432,VALID,-0.0679233,VALID,18.4054,VALID,40,VALID,0,
2002-12-30, 01:18:00,VALID,919.109,VALID,0,VALID,94.2551,VALID,-0.101885,VALID,18.3696,VALID,40,VALID,0,
2002-12-30, 01:19:00,VALID,919.112,VALID,0,VALID,94.4955,VALID,-0.101885,VALID,18.3467,VALID,40,VALID,0,
2002-12-30, 01:20:00,VALID,919.136,VALID,0,VALID,94.5451,VALID,-0.101885,VALID,18.3435,VALID,336,VALID,0.256293,
2002-12-30, 01:21:00,VALID,919.118,VALID,0,VALID,94.5807,VALID,-0.101885,VALID,18.3728,VALID,238,VALID,0.271835,
2002-12-30, 01:22:00,VALID,919.098,VALID,0,VALID,94.4675,VALID,-0.0849042,VALID,18.418,VALID,238,VALID,0.124777,
2002-12-30, 01:23:00,VALID,919.076,VALID,0,VALID,94.292,VALID,-0.101885,VALID,18.4536,VALID,238,VALID,0.117188,
2002-12-30, 01:24:00,VALID,919.05,VALID,0,VALID,94.0085,VALID,-0.101885,VALID,18.4568,VALID,215,VALID,0.0935497,
2002-12-30, 01:25:00,VALID,919.029,VALID,0,VALID,94.0123,VALID,-0.0849042,VALID,18.437,VALID,191,VALID,0.00334821,
2002-12-30, 01:26:00,VALID,919.026,VALID,0,VALID,94.2297,VALID,-0.0679233,VALID,18.421,VALID,191,VALID,0,
2002-12-30, 01:27:00,VALID,919.021,VALID,0,VALID,94.3047,VALID,-0.101885,VALID,18.4116,VALID,191,VALID,0,
2002-12-30, 01:28:00,VALID,918.992,VALID,0,VALID,94.3073,VALID,-0.101885,VALID,18.4056,VALID,191,VALID,0.0560268,
2002-12-30, 01:29:00,VALID,918.985,VALID,0,VALID,94.1966,VALID,-0.0679233,VALID,18.3728,VALID,191,VALID,0.322768,
2002-12-30, 01:30:00,VALID,918.981,VALID,0,VALID,94.1115,VALID,0,VALID,18.3456,VALID,187,VALID,0.476162,
2002-12-30, 01:31:00,VALID,918.968,VALID,0,VALID,94.1343,VALID,0,VALID,18.3133,VALID,186,VALID,0.141964,
2002-12-30, 01:32:00,VALID,918.969,VALID,0,VALID,94.2501,VALID,0,VALID,18.3006,VALID,186,VALID,0,
2002-12-30, 01:33:00,VALID,918.962,VALID,0,VALID,94.4637,VALID,0,VALID,18.2715,VALID,185,VALID,0.118666,
2002-12-30, 01:34:00,VALID,918.957,VALID,0,VALID,94.5235,VALID,0.0339617,VALID,18.2683,VALID,182,VALID,0.255357,
2002-12-30, 01:35:00,VALID,918.932,VALID,0,VALID,94.5374,VALID,0.0339617,VALID,18.2261,VALID,181,VALID,0.247098,
2002-12-30, 01:36:00,VALID,918.933,VALID,0,VALID,94.7104,VALID,0.0169808,VALID,18.1811,VALID,181,VALID,0.110577,
2002-12-30, 01:37:00,VALID,918.927,VALID,0,VALID,94.9138,VALID,-0.0169808,VALID,18.1485,VALID,181,VALID,0,
2002-12-30, 01:38:00,VALID,918.928,VALID,0,VALID,95.0156,VALID,0,VALID,18.1195,VALID,181,VALID,0,
2002-12-30, 01:39:00,VALID,918.901,VALID,0,VALID,95.1376,VALID,0,VALID,18.1164,VALID,181,VALID,0,
2002-12-30, 01:40:00,VALID,918.906,VALID,0,VALID,95.0957,VALID,-0.0169808,VALID,18.1458,VALID,181,VALID,0.0683036,
2002-12-30, 01:41:00,VALID,918.886,VALID,0,VALID,94.9685,VALID,0.0169808,VALID,18.1781,VALID,181,VALID,0,
2002-12-30, 01:42:00,VALID,918.868,VALID,0,VALID,94.7129,VALID,0,VALID,18.2071,VALID,181,VALID,0,
2002-12-30, 01:43:00,VALID,918.835,VALID,0,VALID,94.5921,VALID,-0.0169808,VALID,18.1709,VALID,161,VALID,0.118973,
2002-12-30, 01:44:00,VALID,918.793,VALID,0,VALID,94.6303,VALID,-0.0169808,VALID,18.1455,VALID,98,VALID,0.330512,
2002-12-30, 01:45:00,VALID,918.805,VALID,0,VALID,94.7028,VALID,0,VALID,18.1391,VALID,83,VALID,0.0661058,
2002-12-30, 01:46:00,VALID,918.812,VALID,0,VALID,94.6404,VALID,0,VALID,18.1227,VALID,83,VALID,0,
2002-12-30, 01:47:00,VALID,918.823,VALID,0,VALID,94.6265,VALID,-0.0339617,VALID,18.1038,VALID,83,VALID,0.000446429,
2002-12-30, 01:48:00,VALID,918.821,VALID,0,VALID,94.7816,VALID,-0.0169808,VALID,18.0943,VALID,83,VALID,0.000400641,
2002-12-30, 01:49:00,VALID,918.82,VALID,0,VALID,94.7994,VALID,-0.0509425,VALID,18.0915,VALID,83,VALID,0,
2002-12-30, 01:50:00,VALID,918.807,VALID,0,VALID,94.8464,VALID,-0.0679233,VALID,18.0682,VALID,84,VALID,0.235243,
2002-12-30, 01:51:00,VALID,918.804,VALID,0,VALID,94.9863,VALID,-0.0169808,VALID,18.0719,VALID,85,VALID,0.221154,
2002-12-30, 01:52:00,VALID,918.814,VALID,0,VALID,95.2025,VALID,-0.0169808,VALID,18.0518,VALID,85,VALID,0.00491071,
2002-12-30, 01:53:00,VALID,918.814,VALID,0,VALID,95.1707,VALID,-0.0339617,VALID,18.0359,VALID,85,VALID,0,
2002-12-30, 01:54:00,VALID,918.806,VALID,0,VALID,95.0906,VALID,0,VALID,17.9847,VALID,85,VALID,0.00120192,
2002-12-30, 01:55:00,VALID,918.786,VALID,0,VALID,95.2457,VALID,-0.0339617,VALID,17.9291,VALID,85,VALID,0.322768,
2002-12-30, 01:56:00,VALID,918.776,VALID,0,VALID,95.4683,VALID,-0.0339617,VALID,17.9102,VALID,85,VALID,0.653212,
2002-12-30, 01:57:00,VALID,918.771,VALID,0,VALID,95.645,VALID,-0.0339617,VALID,17.9002,VALID,85,VALID,0.500601,
2002-12-30, 01:58:00,VALID,918.766,VALID,0,VALID,95.7862,VALID,-0.0169808,VALID,17.8906,VALID,82,VALID,0.428348,
2002-12-30, 01:59:00,VALID,918.762,VALID,0,VALID,95.7722,VALID,-0.0169808,VALID,17.897,VALID,77,VALID,0.317187,
2002-12-30, 02:00:00,VALID,918.744,VALID,0,VALID,95.7607,VALID,0,VALID,17.9039,VALID,77,VALID,0.00921474,
2002-12-30, 02:01:00,VALID,918.754,VALID,0,VALID,95.7111,VALID,-0.0339617,VALID,17.8873,VALID,77,VALID,0.00111607,
2002-12-30, 02:02:00,VALID,918.732,VALID,0,VALID,95.7111,VALID,0,VALID,17.8746,VALID,71,VALID,0.202908,
2002-12-30, 02:03:00,VALID,918.71,VALID,0,VALID,95.7849,VALID,-0.0679233,VALID,17.8426,VALID,44,VALID,0.383213,
2002-12-30, 02:04:00,VALID,918.704,VALID,0,VALID,95.926,VALID,-0.0509425,VALID,17.8266,VALID,44,VALID,0.18683,
2002-12-30, 02:05:00,VALID,918.695,VALID,0,VALID,95.9744,VALID,-0.0679233,VALID,17.804,VALID,43,VALID,0,
2002-12-30, 02:06:00,VALID,918.679,VALID,0,VALID,96.0697,VALID,0,VALID,17.7978,VALID,44,VALID,0,
2002-12-30, 02:07:00,VALID,918.661,VALID,0,VALID,96.1536,VALID,0.0169808,VALID,17.7768,VALID,44,VALID,0,
2002-12-30, 02:08:00,VALID,918.632,VALID,0,VALID,96.1918,VALID,0.0849042,VALID,17.7865,VALID,44,VALID,0,
2002-12-30, 02:09:00,VALID,918.62,VALID,0,VALID,96.1918,VALID,0.0169808,VALID,17.7897,VALID,44,VALID,0,
2002-12-30, 02:10:00,VALID,918.619,VALID,0,VALID,96.1676,VALID,0.0679233,VALID,17.8124,VALID,44,VALID,0.23192,
2002-12-30, 02:11:00,VALID,918.59,VALID,0,VALID,96.1536,VALID,0.0849042,VALID,17.8606,VALID,44,VALID,0.241741,
2002-12-30, 02:12:00,VALID,918.562,VALID,0,VALID,95.7887,VALID,0.0339617,VALID,17.8673,VALID,44,VALID,0.252604,
2002-12-30, 02:13:00,VALID,918.538,VALID,0,VALID,95.5535,VALID,0.0339617,VALID,17.8571,VALID,73,VALID,0.343527,
2002-12-30, 02:14:00,VALID,918.528,VALID,0,VALID,95.5941,VALID,0.101885,VALID,17.8186,VALID,126,VALID,0.517578,
2002-12-30, 02:15:00,VALID,918.495,VALID,0,VALID,95.9184,VALID,0.0849042,VALID,17.8091,VALID,142,VALID,0.835136,
2002-12-30, 02:16:00,VALID,918.466,VALID,0,VALID,96.2058,VALID,0.0679233,VALID,17.7796,VALID,145,VALID,0.828571,
2002-12-30, 02:17:00,VALID,918.47,VALID,0,VALID,96.4665,VALID,0.0679233,VALID,17.7831,VALID,146,VALID,0.878571,
2002-12-30, 02:18:00,VALID,918.465,VALID,0,VALID,96.8683,VALID,0.0679233,VALID,17.7895,VALID,147,VALID,0.886418,
2002-12-30, 02:19:00,VALID,918.462,VALID,0,VALID,96.9077,VALID,0.0509425,VALID,17.8029,VALID,146,VALID,0.453795,
2002-12-30, 02:20:00,VALID,918.463,VALID,0,VALID,96.8352,VALID,0.0509425,VALID,17.7988,VALID,124,VALID,0.428168,
2002-12-30, 02:21:00,VALID,918.454,VALID,0,VALID,96.614,VALID,0.0849042,VALID,17.8057,VALID,65,VALID,0.444912,
2002-12-30, 02:22:00,VALID,918.432,VALID,0,VALID,96.3139,VALID,0,VALID,17.7607,VALID,50,VALID,0.618973,
2002-12-30, 02:23:00,VALID,918.415,VALID,0,VALID,96.249,VALID,-0.0339617,VALID,17.7267,VALID,50,VALID,0.697991,
2002-12-30, 02:24:00,VALID,918.397,VALID,0,VALID,96.3838,VALID,-0.0509425,VALID,17.7136,VALID,50,VALID,0.757612,
2002-12-30, 02:25:00,VALID,918.379,VALID,0,VALID,96.3368,VALID,-0.0849042,VALID,17.6946,VALID,50,VALID,0.459598,
2002-12-30, 02:26:00,VALID,918.389,VALID,0,VALID,96.4054,VALID,-0.0679233,VALID,17.6817,VALID,50,VALID,0.0421007,
2002-12-30, 02:27:00,VALID,918.388,VALID,0,VALID,96.4372,VALID,-0.0679233,VALID,17.6686,VALID,50,VALID,0,
2002-12-30, 02:28:00,VALID,918.388,VALID,0,VALID,96.4385,VALID,-0.0849042,VALID,17.6589,VALID,50,VALID,0,
2002-12-30, 02:29:00,VALID,918.386,VALID,0,VALID,96.455,VALID,-0.101885,VALID,17.6457,VALID,50,VALID,0.00267857,
2002-12-30, 02:30:00,VALID,918.383,VALID,0,VALID,96.4766,VALID,-0.0849042,VALID,17.6427,VALID,50,VALID,0.218349,
2002-12-30, 02:31:00,VALID,918.385,VALID,0,VALID,96.5021,VALID,-0.0849042,VALID,17.6499,VALID,51,VALID,0.337054,
2002-12-30, 02:32:00,VALID,918.364,VALID,0,VALID,96.5224,VALID,-0.0849042,VALID,17.6427,VALID,51,VALID,0.124349,
2002-12-30, 02:33:00,VALID,918.376,VALID,0,VALID,96.4461,VALID,-0.0849042,VALID,17.6395,VALID,51,VALID,0.000600962,
2002-12-30, 02:34:00,VALID,918.38,VALID,0,VALID,96.4347,VALID,-0.0509425,VALID,17.6328,VALID,51,VALID,0.000446429,
2002-12-30, 02:35:00,VALID,918.364,VALID,0,VALID,96.2732,VALID,-0.0509425,VALID,17.6102,VALID,51,VALID,0.145982,
2002-12-30, 02:36:00,VALID,918.32,VALID,0,VALID,96.1562,VALID,-0.101885,VALID,17.5977,VALID,59,VALID,0.575521,
2002-12-30, 02:37:00,VALID,918.305,VALID,0,VALID,96.2427,VALID,0,VALID,17.5742,VALID,72,VALID,0.821652,
2002-12-30, 02:38:00,VALID,918.268,VALID,0,VALID,96.0786,VALID,0.0509425,VALID,17.6001,VALID,77,VALID,0.643446,
2002-12-30, 02:39:00,VALID,918.241,VALID,0,VALID,95.8841,VALID,0.0509425,VALID,17.6259,VALID,87,VALID,0.417268,
2002-12-30, 02:40:00,VALID,918.224,VALID,0,VALID,95.701,VALID,0.0509425,VALID,17.6451,VALID,98,VALID,0.377902,
2002-12-30, 02:41:00,VALID,918.208,VALID,0,VALID,95.6844,VALID,0.0339617,VALID,17.6575,VALID,144,VALID,0.892857,
2002-12-30, 02:42:00,VALID,918.187,VALID,0,VALID,95.7582,VALID,0.0849042,VALID,17.6677,VALID,133,VALID,0.828125,
2002-12-30, 02:43:00,VALID,918.179,VALID,0,VALID,95.8497,VALID,0.0849042,VALID,17.6511,VALID,118,VALID,0.886161,
2002-12-30, 02:44:00,VALID,918.16,VALID,0,VALID,95.7531,VALID,0.101885,VALID,17.6416,VALID,102,VALID,0.912543,
2002-12-30, 02:45:00,VALID,918.139,VALID,0,VALID,95.6081,VALID,0.101885,VALID,17.6448,VALID,98,VALID,0.885016,
2002-12-30, 02:46:00,VALID,918.119,VALID,0,VALID,95.3207,VALID,0.0679233,VALID,17.6679,VALID,84,VALID,0.787054,
2002-12-30, 02:47:00,VALID,918.114,VALID,0,VALID,95.2673,VALID,0.0509425,VALID,17.6386,VALID,91,VALID,0.939732,
2002-12-30, 02:48:00,VALID,918.097,VALID,0,VALID,95.3271,VALID,0.0509425,VALID,17.6317,VALID,108,VALID,0.86879,
2002-12-30, 02:49:00,VALID,918.08,VALID,0,VALID,95.2839,VALID,0.0679233,VALID,17.6647,VALID,115,VALID,0.726116,
2002-12-30, 02:50:00,VALID,918.093,VALID,0,VALID,95.2534,VALID,0.0849042,VALID,17.7,VALID,111,VALID,0.693576,
2002-12-30, 02:51:00,VALID,918.095,VALID,0,VALID,95.144,VALID,0.0509425,VALID,17.723,VALID,110,VALID,0.749399,
2002-12-30, 02:52:00,VALID,918.051,VALID,0,VALID,95.1491,VALID,0.0679233,VALID,17.7293,VALID,113,VALID,0.810268,
2002-12-30, 02:53:00,VALID,918.022,VALID,0,VALID,95.3233,VALID,0.0509425,VALID,17.7157,VALID,120,VALID,0.961161,
2002-12-30, 02:54:00,VALID,918.011,VALID,0,VALID,95.5128,VALID,0.0339617,VALID,17.7161,VALID,130,VALID,0.872596,
2002-12-30, 02:55:00,VALID,918.005,VALID,0,VALID,95.6361,VALID,0.0679233,VALID,17.7062,VALID,142,VALID,0.618304,
2002-12-30, 02:56:00,VALID,917.994,VALID,0,VALID,95.879,VALID,0.0679233,VALID,17.7129,VALID,146,VALID,0.895833,
2002-12-30, 02:57:00,VALID,917.982,VALID,0,VALID,96.202,VALID,0.0509425,VALID,17.7161,VALID,130,VALID,0.666667,
2002-12-30, 02:58:00,VALID,917.973,VALID,0,VALID,96.2948,VALID,0.0849042,VALID,17.7094,VALID,109,VALID,0.766964,
2002-12-30, 02:59:00,VALID,917.946,VALID,0,VALID,96.0328,VALID,0.0339617,VALID,17.7002,VALID,79,VALID,0.714955,
2002-12-30, 03:00:00,VALID,917.928,VALID,0,VALID,95.8408,VALID,0.0679233,VALID,17.6354,VALID,69,VALID,1.02404,
2002-12-30, 03:01:00,VALID,917.914,VALID,0,VALID,95.8103,VALID,0.0679233,VALID,17.5999,VALID,71,VALID,0.781027,
2002-12-30, 03:02:00,VALID,917.918,VALID,0,VALID,95.6704,VALID,0.0679233,VALID,17.571,VALID,70,VALID,0.525825,
2002-12-30, 03:03:00,VALID,917.911,VALID,0,VALID,95.6844,VALID,0.101885,VALID,17.5318,VALID,74,VALID,0.632212,
2002-12-30, 03:04:00,VALID,917.94,VALID,0,VALID,95.6908,VALID,0.0849042,VALID,17.5154,VALID,76,VALID,0.461161,
2002-12-30, 03:05:00,VALID,917.949,VALID,0,VALID,95.5891,VALID,0.0849042,VALID,17.529,VALID,76,VALID,0.369643,
2002-12-30, 03:06:00,VALID,917.975,VALID,0,VALID,95.5547,VALID,0.0679233,VALID,17.5154,VALID,76,VALID,0.396835,
2002-12-30, 03:07:00,VALID,917.997,VALID,0,VALID,95.5522,VALID,0.0509425,VALID,17.5198,VALID,76,VALID,0.0872768,
2002-12-30, 03:08:00,VALID,917.991,VALID,0,VALID,95.5484,VALID,-0.0169808,VALID,17.5008,VALID,76,VALID,0.0195313,
2002-12-30, 03:09:00,VALID,917.993,VALID,0,VALID,95.514,VALID,0,VALID,17.4985,VALID,77,VALID,0.254808,
2002-12-30, 03:10:00,VALID,918,VALID,0,VALID,95.4568,VALID,0,VALID,17.469,VALID,97,VALID,0.741295,
2002-12-30, 03:11:00,VALID,917.975,VALID,0,VALID,95.2864,VALID,0,VALID,17.4847,VALID,108,VALID,0.918973,
2002-12-30, 03:12:00,VALID,917.972,VALID,0,VALID,94.8744,VALID,0.0169808,VALID,17.5529,VALID,103,VALID,0.864784,
2002-12-30, 03:13:00,VALID,917.963,VALID,0,VALID,94.3887,VALID,0,VALID,17.6109,VALID,90,VALID,0.611161,
2002-12-30, 03:14:00,VALID,917.956,VALID,0,VALID,94.072,VALID,-0.0339617,VALID,17.6464,VALID,109,VALID,0.474392,
2002-12-30, 03:15:00,VALID,917.954,VALID,0,VALID,93.936,VALID,0,VALID,17.6695,VALID,121,VALID,0.321114,
2002-12-30, 03:16:00,VALID,917.944,VALID,0,VALID,93.9678,VALID,-0.0169808,VALID,17.6535,VALID,135,VALID,0.44375,
2002-12-30, 03:17:00,VALID,917.932,VALID,0,VALID,94.161,VALID,-0.0339617,VALID,17.6309,VALID,138,VALID,0.670982,
2002-12-30, 03:18:00,VALID,917.917,VALID,0,VALID,94.3149,VALID,-0.0509425,VALID,17.5783,VALID,130,VALID,0.409054,
2002-12-30, 03:19:00,VALID,917.912,VALID,0,VALID,94.6265,VALID,-0.0509425,VALID,17.5534,VALID,135,VALID,0.737277,
2002-12-30, 03:20:00,VALID,917.904,VALID,0,VALID,94.8057,VALID,-0.0339617,VALID,17.5206,VALID,137,VALID,0.554905,
2002-12-30, 03:21:00,VALID,917.89,VALID,0,VALID,95.0512,VALID,-0.0169808,VALID,17.5017,VALID,129,VALID,0.336939,
2002-12-30, 03:22:00,VALID,917.881,VALID,0,VALID,95.2953,VALID,-0.0339617,VALID,17.4752,VALID,113,VALID,0.426116,
2002-12-30, 03:23:00,VALID,917.886,VALID,0,VALID,95.5827,VALID,0,VALID,17.4552,VALID,113,VALID,0.358482,
2002-12-30, 03:24:00,VALID,917.886,VALID,0,VALID,95.9642,VALID,-0.0169808,VALID,17.4556,VALID,115,VALID,0.456731,
2002-12-30, 03:25:00,VALID,917.864,VALID,0,VALID,95.8955,VALID,0,VALID,17.4526,VALID,63,VALID,0.328571,
2002-12-30, 03:26:00,VALID,917.833,VALID,0,VALID,95.5267,VALID,-0.0339617,VALID,17.3942,VALID,63,VALID,0.318576,
2002-12-30, 03:27:00,VALID,917.824,VALID,0,VALID,95.5522,VALID,0,VALID,17.3523,VALID,63,VALID,0.305489,
2002-12-30, 03:28:00,VALID,917.82,VALID,0,VALID,95.8815,VALID,-0.0169808,VALID,17.3299,VALID,63,VALID,0.210491,
2002-12-30, 03:29:00,VALID,917.813,VALID,0,VALID,96.1142,VALID,-0.0169808,VALID,17.32,VALID,63,VALID,0.00602679,
2002-12-30, 03:30:00,VALID,917.8,VALID,0,VALID,96.2567,VALID,-0.0169808,VALID,17.3165,VALID,63,VALID,0,
2002-12-30, 03:31:00,VALID,917.795,VALID,0,VALID,96.2541,VALID,0,VALID,17.3137,VALID,63,VALID,0.419643,
2002-12-30, 03:32:00,VALID,917.785,VALID,0,VALID,96.2312,VALID,-0.0169808,VALID,17.2941,VALID,83,VALID,0.5523,
2002-12-30, 03:33:00,VALID,917.787,VALID,0,VALID,96.3329,VALID,-0.0339617,VALID,17.2752,VALID,84,VALID,0.2502,
2002-12-30, 03:34:00,VALID,917.791,VALID,0,VALID,96.4677,VALID,0,VALID,17.2655,VALID,104,VALID,0.357143,